Change the Weather History Date:

Tuesday, January 28, 2014

  Actual Average Record
Temperature  
Mean Temperature 18 °F -  
Max Temperature 26 °F 44 °F 71 °F (2013)
Min Temperature 10 °F 27 °F 1 °F (1997)
Degree Days  
Heating Degree Days 47    
Moisture  
Dew Point -2 °F    
Average Humidity 44    
Maximum Humidity 61    
Minimum Humidity 31    
Precipitation  
Precipitation 0.00 in - - ()
Sea Level Pressure  
Sea Level Pressure 30.46 in    
Wind  
Wind Speed 8 mph (NNW)    
Max Wind Speed 14 mph    
Max Gust Speed -    
Visibility 10 miles    
Events      
Averages and records for this station are not official NWS values.
T = Trace of Precipitation, MM = Missing Value Source: NWS Daily Summary

Daily Weather History Graph

Daily Weather History Graph

Search for Another Location

Airport or City:

Trip Planner

Search our weather history database for the weather conditions in past years. The results will help you decide how hot, cold, wet, or windy it might be!

Date:

Astronomy

Jan. 28, 2014 Rise Set
Actual Time 7:20 AM CST 5:38 PM CST
Civil Twilight 6:53 AM CST 6:05 PM CST
Nautical Twilight 6:22 AM CST 6:36 PM CST
Astronomical Twilight 5:51 AM CST 7:07 PM CST
Moon 5:01 AM CST (1/28) 3:30 PM CST (1/28)
Length of Visible Light 11h 12m
Length of Day
10h 17m
Waning Crescent, 7% of the Moon is Illuminated
Jan 28
Waning Crescent
Jan 30
New
Feb 6
First Quarter
Feb 14
Full
Feb 22
Last Quarter

Hourly Weather History & Observations

Time (CST) Temp. Windchill Dew Point Humidity Pressure Visibility Wind Dir Wind Speed Gust Speed Precip Events Conditions
12:57 AM 14.0 °F -0.8 °F -5.1 °F 43% 30.46 in 10.0 mi NNE 13.8 mph - N/A   Overcast
1:57 AM 14.0 °F 2.0 °F -4.0 °F 45% 30.47 in 10.0 mi NNE 9.2 mph - N/A   Overcast
2:57 AM 12.9 °F 0.7 °F -2.9 °F 49% 30.47 in 10.0 mi NNE 9.2 mph - N/A   Overcast
3:57 AM 12.9 °F -0.9 °F -2.9 °F 49% 30.48 in 10.0 mi NNE 11.5 mph - N/A   Overcast
4:57 AM 12.0 °F 2.7 °F -2.9 °F 51% 30.47 in 10.0 mi NNE 5.8 mph - N/A   Overcast
5:57 AM 10.9 °F 0.2 °F -2.9 °F 54% 30.48 in 10.0 mi North 6.9 mph - N/A   Clear
6:57 AM 10.9 °F 0.2 °F -2.9 °F 54% 30.51 in 10.0 mi NNE 6.9 mph - N/A   Mostly Cloudy
7:57 AM 10.9 °F 1.4 °F -4.0 °F 51% 30.52 in 10.0 mi NNE 5.8 mph - N/A   Clear
8:57 AM 12.0 °F 1.5 °F -5.1 °F 46% 30.53 in 10.0 mi NE 6.9 mph - N/A   Clear
9:57 AM 15.1 °F - -4.0 °F 43% 30.54 in 10.0 mi North - - N/A   Mostly Cloudy
10:57 AM 18.0 °F 7.7 °F -5.1 °F 36% 30.53 in 10.0 mi NNW 8.1 mph - N/A   Clear
11:57 AM 19.9 °F 14.9 °F -5.1 °F 33% 30.50 in 10.0 mi Variable 3.5 mph - N/A   Clear
12:57 PM 23.0 °F 13.9 °F -2.9 °F 32% 30.46 in 10.0 mi NW 8.1 mph - N/A   Clear
1:57 PM 25.0 °F 17.1 °F -2.0 °F 31% 30.42 in 10.0 mi Variable 6.9 mph - N/A   Clear
2:57 PM 25.0 °F 18.1 °F -2.0 °F 31% 30.41 in 10.0 mi WNW 5.8 mph - N/A   Clear
3:57 PM 26.1 °F 21.9 °F -0.9 °F 31% 30.40 in 10.0 mi WSW 3.5 mph - N/A   Clear
4:57 PM 25.0 °F 13.1 °F 1.0 °F 36% 30.39 in 10.0 mi WNW 13.8 mph - N/A   Mostly Cloudy
5:57 PM 21.9 °F 12.5 °F -0.0 °F 38% 30.40 in 10.0 mi NW 8.1 mph - N/A   Clear
6:57 PM 19.9 °F 14.9 °F -0.9 °F 40% 30.42 in 10.0 mi WNW 3.5 mph - N/A   Clear
7:57 PM 19.0 °F - -0.0 °F 43% 30.43 in 10.0 mi Calm Calm - N/A   Clear
8:57 PM 18.0 °F - 3.0 °F 52% 30.43 in 10.0 mi Calm Calm - N/A   Clear
9:57 PM 16.0 °F 10.4 °F 1.9 °F 54% 30.43 in 10.0 mi South 3.5 mph - N/A   Clear
10:57 PM 15.1 °F - 3.0 °F 59% 30.43 in 10.0 mi North - - N/A   Partly Cloudy
11:57 PM 15.1 °F 7.7 °F 3.9 °F 61% 30.41 in 10.0 mi SSW 4.6 mph - N/A   Scattered Clouds